Location: Asheville, NC
(35.6000°N, 82.5500°W)
Time: 20:21:22
(UTC-04:00)

Vanguard 2 - Pass Details

Date: 11 March 2018
Orbit: 554 x 2939 km, 32.9° (Epoch: 24 June)

Event Time Altitude Azimuth Distance (km) Brightness Sun altitude
Rises 17:52:33 0° 282° (WNW) 6,794 13.3 19.4°
Reaches altitude 10° 17:57:18 10° 279° (W) 5,728 13.2 18.5°
Maximum altitude 18:13:46 56° 208° (SSW) 2,731 10.9 15.3°
Drops below altitude 10° 18:25:06 10° 134° (SE) 4,063 11.0 13.1°
Sets 18:27:53 0° 130° (SE) 4,771 11.2 12.5°
